Location: A�t Bou Chrif
(32.7193°N, 5.2385°W)
Time: 03:32:22
(UTC+00:00)

SPOT 3 Rocket - Pass Details

Date: 08 August 2020
Orbit: 778 x 795 km, 98.8° (Epoch: 20 September)

Event Time Altitude Azimuth Distance (km) Brightness Sun altitude
Exits shadow 20:54:53 27° 171° (S) 1,494 4.6 -19.9°
Maximum altitude 20:57:50 82° 256° (WSW) 805 3.6 -20.4°
Drops below altitude 10° 21:03:04 10° 345° (NNW) 2,360 6.7 -21.3°
Sets 21:05:24 0° 346° (NNW) 3,290 7.6 -21.7°
